Location: Forli
(44.2227°N, 12.0407°E)
Time: 18:14:10
(UTC+01:00)

ISS - Pass Details

Date: 16 February 2026
Orbit: 416 x 427 km, 51.6° (Epoch: 6 March)

Event Time Altitude Azimuth Distance (km) Brightness Sun altitude
Exits shadow 04:50:39 27° 109° (ESE) 827 -1.8 -25.6°
Drops below altitude 10° 04:52:51 10° 75° (ENE) 1,493 0.1 -25.2°
Sets 04:55:04 0° 65° (ENE) 2,359 1.2 -24.8°
